KC1KAD Weather Reports


time (UTC)temp
C
wind
direction
speed
KPH
gust
KPH
rain 1hr
cm
rain 24hr
cm
rain mn
cm
humidity
%
barometer
mb
20260505181902 21 168 6.4 11.3 0.00 0.05 0.00 42 1016.3
20260505181619 21 182 6.4 11.3 0.00 0.05 0.00 42 1016.3
20260505181123 21 184 6.4 11.3 0.00 0.08 0.00 42 1016.2
20260505180402 21 182 6.4 11.3 0.00 0.08 0.00 43 1016.0
20260505175902 21 187 6.4 11.3 0.00 0.08 0.00 42 1016.1
20260505175402 21 181 6.4 11.3 0.00 0.08 0.00 43 1016.2
20260505175123 21 183 6.4 11.3 0.00 0.08 0.00 43 1016.2
20260505174401 21 176 4.8 9.7 0.00 0.08 0.00 44 1016.3
20260505173402 21 185 6.4 11.3 0.00 0.08 0.00 42 1016.5
20260505172902 21 172 6.4 11.3 0.00 0.08 0.00 41 1016.5
20260505172402 21 178 6.4 11.3 0.00 0.08 0.00 41 1016.6
20260505172129 21 162 6.4 11.3 0.00 0.08 0.00 41 1017.0
20260505171402 21 169 6.4 9.7 0.00 0.08 0.00 40 1016.8
20260505170902 21 168 6.4 11.3 0.00 0.08 0.00 41 1016.9
20260505170402 21 188 6.4 11.3 0.00 0.08 0.00 41 1016.8
20260505165902 21 183 8.0 11.3 0.00 0.08 0.00 41 1016.8
20260505165402 21 192 6.4 11.3 0.00 0.08 0.00 42 1017.0
20260505164902 21 179 4.8 9.7 0.00 0.08 0.00 43 1016.8
20260505164401 21 173 4.8 9.7 0.00 0.08 0.00 44 1016.7
20260505163902 21 193 6.4 11.3 0.00 0.08 0.00 42 1016.6
20260505163402 21 185 6.4 11.3 0.00 0.08 0.00 42 1016.6
20260505162902 21 179 6.4 11.3 0.00 0.08 0.00 43 1016.5
20260505162401 21 184 6.4 11.3 0.00 0.08 0.00 43 1016.6
20260505161901 21 176 6.4 9.7 0.00 0.08 0.00 44 1016.5
20260505161402 21 165 6.4 9.7 0.00 0.08 0.00 42 1016.5
20260505160902 21 178 6.4 9.7 0.00 0.08 0.00 43 1016.8
20260505160402 20 185 6.4 9.7 0.00 0.08 0.00 43 1016.7
20260505153128 20 177 3.2 6.4 0.00 0.08 0.00 47 1016.9
20260505151901 20 181 1.6 4.8 0.00 0.08 0.00 47 1016.8
20260505151126 20 0 1.6 6.4 0.00 0.08 0.00 50 1017.2
20260505150402 20 159 0.0 6.4 0.00 0.08 0.00 52 1017.2
20260505140402 16 0 1.6 4.8 0.00 0.08 0.00 64 1017.2
20260505124901 10 26 1.6 3.2 0.00 0.08 0.00 81 1016.7
20260505124402 10 326 1.6 3.2 0.00 0.08 0.00 82 1016.6
20260505123902 10 295 1.6 3.2 0.00 0.08 0.00 83 1016.7
20260505123402 10 9 1.6 4.8 0.00 0.08 0.00 83 1016.5
20260505122902 10 331 1.6 4.8 0.00 0.08 0.00 83 1016.4
20260505122401 10 6 1.6 3.2 0.00 0.08 0.00 83 1016.5
20260505121901 10 301 1.6 4.8 0.00 0.08 0.00 84 1016.4
20260505120903 9 334 1.6 4.8 0.00 0.08 0.00 83 1016.4
20260505120402 9 239 0.0 3.2 0.00 0.08 0.00 84 1016.3
20260505115902 9 281 0.0 3.2 0.00 0.08 0.00 84 1016.2
20260505115402 9 2 1.6 3.2 0.00 0.08 0.00 85 1016.1
20260505114902 8 273 1.6 3.2 0.00 0.08 0.00 85 1016.1
20260505114402 8 246 1.6 3.2 0.00 0.08 0.00 85 1016.0
20260505113903 8 351 1.6 3.2 0.00 0.08 0.00 85 1016.1
20260505113402 8 256 1.6 6.4 0.00 0.08 0.00 85 1016.0
20260505112903 8 311 3.2 6.4 0.00 0.08 0.00 85 1016.0
20260505112622 8 345 1.6 6.4 0.00 0.08 0.00 85 1015.8
20260505112126 8 354 1.6 3.2 0.00 0.08 0.00 85 1015.6
20260505111402 8 147 1.6 3.2 0.00 0.08 0.00 84 1015.6
20260505110902 8 0 1.6 3.2 0.00 0.08 0.00 84 1015.6
20260505110402 8 281 1.6 3.2 0.00 0.08 0.00 84 1015.7
20260505101902 9 282 1.6 3.2 0.00 0.08 0.00 82 1015.3
20260505100902 9 288 1.6 4.8 0.00 0.08 0.00 82 1015.4
20260505095902 9 253 1.6 4.8 0.00 0.08 0.00 80 1015.5
20260505095402 9 309 3.2 8.0 0.00 0.08 0.00 79 1015.6
20260505094902 10 329 3.2 8.0 0.00 0.08 0.00 78 1015.7
20260505094402 10 345 1.6 4.8 0.00 0.08 0.00 78 1015.5
20260505093902 10 357 1.6 4.8 0.00 0.08 0.00 77 1015.5
20260505093401 10 327 1.6 3.2 0.00 0.08 0.00 76 1015.5
20260505093125 11 30 1.6 3.2 0.00 0.08 0.00 74 1015.5
20260505092402 11 11 1.6 3.2 0.00 0.08 0.00 71 1015.5
20260505091902 11 210 1.6 3.2 0.00 0.08 0.00 70 1015.5
20260505091620 11 28 1.6 4.8 0.00 0.08 0.00 71 1015.5
20260505090901 11 219 1.6 4.8 0.00 0.08 0.00 70 1015.6
20260505090401 11 214 1.6 3.2 0.00 0.08 0.00 69 1015.5
20260505085901 11 229 1.6 3.2 0.00 0.08 0.00 69 1015.5
20260505085620 11 225 1.6 3.2 0.00 0.08 0.00 69 1015.5
20260505084402 11 220 1.6 3.2 0.00 0.08 0.00 69 1015.6
20260505083901 11 309 1.6 3.2 0.00 0.08 0.00 69 1015.6
20260505083401 11 62 1.6 3.2 0.00 0.08 0.00 69 1015.5
20260505082901 11 14 1.6 3.2 0.00 0.08 0.00 68 1015.5
20260505082401 11 243 1.6 3.2 0.00 0.08 0.00 68 1015.6
20260505081902 11 184 1.6 3.2 0.00 0.08 0.00 68 1015.5
20260505081621 12 235 0.0 3.2 0.00 0.08 0.00 68 1015.5
20260505080902 12 214 0.0 3.2 0.00 0.08 0.00 67 1015.5
20260505080402 12 259 1.6 3.2 0.00 0.08 0.00 67 1015.4
20260505075902 12 268 1.6 3.2 0.00 0.08 0.00 67 1015.4
20260505075402 12 268 0.0 3.2 0.00 0.08 0.00 67 1015.5
20260505074902 12 23 1.6 3.2 0.00 0.08 0.00 67 1015.4
20260505074403 12 0 1.6 3.2 0.00 0.08 0.00 67 1015.4
20260505073902 12 337 0.0 3.2 0.00 0.08 0.00 68 1015.4
20260505073403 12 263 1.6 8.0 0.00 0.08 0.00 67 1015.4
20260505072903 12 270 1.6 8.0 0.00 0.08 0.00 67 1015.4
20260505072403 12 281 0.0 3.2 0.00 0.08 0.00 67 1015.4
20260505071402 12 290 1.6 4.8 0.00 0.08 0.00 67 1015.4
20260505070902 12 272 1.6 4.8 0.00 0.08 0.00 67 1015.5
20260505070627 12 311 1.6 4.8 0.00 0.08 0.00 67 1015.5
20260505070120 12 277 1.6 4.8 0.00 0.08 0.00 67 1015.4
20260505065629 12 312 1.6 4.8 0.00 0.08 0.00 67 1015.4
20260505064902 12 323 1.6 4.8 0.00 0.08 0.00 68 1015.3
20260505064402 12 291 1.6 3.2 0.00 0.08 0.00 68 1015.3
20260505063902 12 241 0.0 3.2 0.00 0.08 0.00 69 1015.3
20260505063402 11 353 1.6 3.2 0.00 0.08 0.00 70 1015.4
20260505062902 11 277 1.6 3.2 0.00 0.08 0.00 70 1015.4
20260505062402 11 1 1.6 3.2 0.00 0.08 0.00 70 1015.3
20260505061901 12 256 0.0 3.2 0.00 0.08 0.00 71 1015.4
20260505061402 12 250 1.6 3.2 0.00 0.08 0.00 70 1015.4
20260505061123 12 300 1.6 3.2 0.00 0.08 0.00 70 1015.5
20260505060402 12 0 1.6 3.2 0.00 0.08 0.00 70 1015.5
20260505055902 12 0 1.6 3.2 0.00 0.08 0.00 70 1015.5
20260505055626 12 0 1.6 3.2 0.00 0.08 0.00 69 1015.6
20260505054901 12 282 1.6 3.2 0.00 0.08 0.00 70 1015.5
20260505054402 12 282 1.6 3.2 0.00 0.08 0.00 69 1015.5
20260505053402 12 294 1.6 3.2 0.00 0.08 0.00 68 1015.5
20260505052901 12 29 1.6 3.2 0.00 0.08 0.00 68 1015.5
20260505052401 12 274 1.6 3.2 0.00 0.08 0.00 67 1015.5
20260505051901 13 211 1.6 3.2 0.00 0.08 0.00 66 1015.5
20260505051402 13 239 3.2 4.8 0.00 0.08 0.00 65 1015.5
20260505050902 13 205 3.2 4.8 0.00 0.08 0.00 64 1015.5
20260505050624 13 220 1.6 3.2 0.00 0.08 0.00 63 1015.6
20260505041629 15 203 3.2 6.4 0.00 0.08 0.00 57 1015.7
20260505040902 15 202 3.2 6.4 0.00 0.08 0.00 58 1015.8
20260505040402 15 190 3.2 6.4 0.00 0.08 0.00 58 1015.8
20260505035902 15 194 3.2 6.4 0.00 0.08 0.08 59 1015.8
20260505034902 14 214 3.2 4.8 0.00 0.08 0.08 61 1015.8
20260505034403 14 198 3.2 4.8 0.00 0.08 0.08 62 1015.8
20260505033903 14 191 3.2 4.8 0.00 0.08 0.08 62 1016.0
20260505033402 14 197 3.2 4.8 0.00 0.08 0.08 62 1016.1
20260505032902 14 193 3.2 4.8 0.00 0.08 0.08 62 1016.1
20260505032402 14 206 3.2 4.8 0.00 0.08 0.08 63 1016.1
20260505031902 14 205 3.2 4.8 0.00 0.08 0.08 64 1016.2
20260505031402 14 186 3.2 4.8 0.00 0.08 0.08 64 1016.2
20260505030902 14 195 1.6 4.8 0.00 0.08 0.08 64 1016.2
20260505030402 14 200 1.6 4.8 0.00 0.08 0.08 65 1016.2
20260505025901 14 207 1.6 3.2 0.00 0.08 0.08 65 1016.2
20260505025402 14 234 1.6 3.2 0.00 0.08 0.08 65 1016.1
20260505024902 14 209 1.6 3.2 0.00 0.08 0.08 64 1016.2
20260505024402 14 239 1.6 3.2 0.00 0.08 0.08 64 1016.1
20260505023902 14 221 1.6 3.2 0.00 0.08 0.08 64 1016.1
20260505022902 15 219 1.6 3.2 0.00 0.08 0.08 63 1016.0
20260505022402 15 208 1.6 3.2 0.00 0.08 0.08 62 1016.0
20260505021902 15 223 1.6 3.2 0.00 0.08 0.08 61 1016.0
20260505021402 15 218 1.6 3.2 0.00 0.08 0.08 61 1016.0
20260505020902 16 211 1.6 3.2 0.00 0.08 0.08 61 1016.0
20260505020402 16 0 1.6 3.2 0.00 0.08 0.08 60 1015.8
20260505015902 16 213 1.6 3.2 0.00 0.08 0.08 57 1015.8
20260505015401 17 190 3.2 6.4 0.00 0.08 0.08 55 1015.8
20260505014903 17 196 3.2 6.4 0.00 0.08 0.08 55 1015.7
20260505014402 17 200 3.2 6.4 0.00 0.08 0.08 56 1015.6
20260505013902 17 200 3.2 6.4 0.00 0.08 0.08 55 1015.6
20260505013621 17 193 3.2 6.4 0.00 0.08 0.08 55 1015.5
20260505012902 17 212 3.2 4.8 0.00 0.08 0.08 56 1015.5
20260505012624 17 181 3.2 4.8 0.00 0.08 0.08 57 1015.5
20260505012125 17 191 3.2 6.4 0.00 0.08 0.08 57 1015.5
20260505011401 17 192 3.2 6.4 0.00 0.08 0.08 55 1015.5
20260505010901 17 184 3.2 6.4 0.00 0.08 0.08 55 1015.5
20260505010401 17 181 3.2 6.4 0.00 0.08 0.08 56 1015.4
20260505010124 17 189 3.2 4.8 0.00 0.08 0.08 56 1015.4
20260505005620 17 198 3.2 6.4 0.00 0.08 0.08 56 1015.3
20260505005121 17 190 4.8 6.4 0.00 0.08 0.08 55 1015.3
20260505004403 17 190 4.8 6.4 0.00 0.08 0.08 55 1015.3
20260505003902 17 187 4.8 6.4 0.00 0.08 0.08 55 1015.2
20260505003634 17 194 4.8 6.4 0.00 0.08 0.08 55 1015.2
20260505002903 17 209 4.8 6.4 0.00 0.08 0.08 55 1015.1
20260505002403 17 205 4.8 6.4 0.00 0.08 0.08 56 1015.0
20260505001902 17 194 4.8 6.4 0.00 0.08 0.08 55 1015.0
20260505001402 17 200 3.2 6.4 0.00 0.08 0.08 55 1015.0
20260505000902 18 191 4.8 6.4 0.00 0.08 0.08 54 1015.0
20260505000403 18 193 4.8 6.4 0.00 0.08 0.08 53 1014.9
20260504235902 18 194 3.2 6.4 0.00 0.08 0.08 52 1014.9
20260504235402 18 196 4.8 6.4 0.00 0.08 0.08 51 1014.9
20260504235119 18 191 3.2 6.4 0.00 0.08 0.08 51 1014.9
20260504234402 18 196 3.2 6.4 0.00 0.08 0.08 49 1014.9
20260504233902 18 213 4.8 6.4 0.00 0.08 0.08 50 1014.9
20260504233402 19 177 4.8 6.4 0.00 0.08 0.08 51 1014.8
20260504232902 19 196 3.2 6.4 0.00 0.08 0.08 51 1014.9
20260504232621 19 180 3.2 6.4 0.00 0.08 0.08 50 1014.9
20260504231902 19 199 4.8 9.7 0.00 0.08 0.08 50 1014.8
20260504231403 19 183 4.8 9.7 0.00 0.08 0.08 50 1014.7
20260504230902 19 186 4.8 8.0 0.00 0.08 0.08 50 1014.7
20260504230402 19 186 3.2 8.0 0.00 0.08 0.08 50 1014.7
20260504225902 20 190 3.2 8.0 0.00 0.08 0.08 50 1014.7
20260504225620 20 203 4.8 8.0 0.00 0.08 0.08 49 1014.7
20260504224901 20 184 3.2 6.4 0.00 0.08 0.08 48 1014.7
20260504224401 20 191 3.2 6.4 0.00 0.08 0.08 48 1014.7
20260504223901 20 158 3.2 6.4 0.00 0.08 0.08 47 1014.7
20260504223401 20 185 3.2 6.4 0.00 0.08 0.08 46 1014.6
20260504222901 20 200 3.2 9.7 0.00 0.08 0.08 46 1014.7
20260504222400 20 174 4.8 9.7 0.00 0.08 0.08 46 1014.7
20260504221901 20 187 4.8 9.7 0.00 0.08 0.08 46 1014.7
20260504221400 20 172 4.8 9.7 0.00 0.08 0.08 46 1014.6
20260504220900 20 181 4.8 9.7 0.00 0.08 0.08 46 1014.6
20260504220400 20 160 6.4 11.3 0.00 0.08 0.08 46 1014.6
20260504215901 21 170 8.0 14.5 0.00 0.08 0.08 45 1014.6
20260504215401 21 207 8.0 14.5 0.00 0.08 0.08 45 1014.5
20260504214400 21 183 6.4 9.7 0.00 0.08 0.08 44 1014.5
20260504213900 21 179 6.4 9.7 0.00 0.08 0.08 44 1014.5
20260504213400 21 171 8.0 12.9 0.00 0.08 0.08 43 1014.3
20260504212900 21 283 8.0 12.9 0.00 0.08 0.08 42 1014.3
20260504212624 21 171 8.0 12.9 0.00 0.08 0.08 41 1014.3
20260504211900 21 154 8.0 12.9 0.00 0.08 0.08 41 1014.3
20260504211400 21 166 8.0 14.5 0.00 0.08 0.08 43 1014.2
20260504210901 22 177 6.4 14.5 0.00 0.08 0.08 41 1014.1
20260504210401 22 165 6.4 11.3 0.00 0.08 0.08 40 1014.2
20260504210121 22 179 4.8 9.7 0.00 0.08 0.08 41 1014.2
20260504205401 22 144 6.4 8.0 0.00 0.08 0.08 38 1014.1
20260504204901 22 193 4.8 8.0 0.00 0.08 0.08 36 1014.1
20260504204402 22 185 4.8 6.4 0.00 0.08 0.08 35 1014.1
20260504203902 22 195 4.8 8.0 0.00 0.08 0.08 33 1014.1
20260504202901 22 196 4.8 6.4 0.00 0.08 0.08 30 1014.1
20260504202401 23 184 3.2 6.4 0.00 0.08 0.08 32 1014.1
20260504201901 23 171 3.2 11.3 0.00 0.08 0.08 30 1014.1
20260504201401 23 169 4.8 11.3 0.00 0.08 0.08 29 1014.1
20260504200901 23 184 4.8 8.0 0.03 0.08 0.08 30 1014.2
20260504200401 22 173 4.8 8.0 0.03 0.08 0.08 30 1014.1
20260504195901 22 181 4.8 8.0 0.03 0.08 0.08 32 1014.1
20260504195401 22 182 4.8 8.0 0.05 0.08 0.08 32 1014.1
20260504194901 22 186 4.8 8.0 0.05 0.08 0.08 31 1014.1
20260504194401 22 170 4.8 8.0 0.05 0.08 0.08 32 1014.3
20260504194121 22 178 4.8 8.0 0.05 0.08 0.08 33 1014.2
20260504193622 23 161 4.8 9.7 0.05 0.08 0.08 33 1014.2
20260504192902 23 164 4.8 9.7 0.05 0.08 0.08 32 1014.6
20260504192621 23 182 4.8 9.7 0.05 0.08 0.08 33 1015.0
20260504192124 23 260 4.8 9.7 0.05 0.08 0.08 34 1015.1
20260504191622 23 163 4.8 9.7 0.05 0.08 0.08 34 1015.1
20260504190901 23 185 4.8 9.7 0.05 0.05 0.05 34 1015.2
20260504190400 23 209 4.8 8.0 0.05 0.05 0.05 34 1015.4
20260504185901 23 146 4.8 8.0 0.05 0.05 0.03 35 1015.5
20260504185624 23 207 3.2 8.0 0.03 0.03 0.03 35 1015.7
20260504184901 23 144 3.2 8.0 0.03 0.03 0.03 37 1015.8
20260504184401 22 162 4.8 8.0 0.03 0.03 0.03 36 1016.0
20260504183901 22 181 3.2 8.0 0.03 0.03 0.03 38 1016.3
20260504183401 22 203 3.2 6.4 0.03 0.03 0.03 39 1015.7
20260504182401 22 166 4.8 8.0 0.03 0.03 0.03 38 1016.1